When you browse on this site, cookies collect data to enhance your experience and personalize the content and advertising you see.
Visit our Privacy Policy to learn more. By continuing to use the site, you agree to this use of cookies and data.
  • In Österreich
  • Länderverzeichnis
  • Für 7 Tage
  • Wassertemperatur
  • Satellitenkarten
  • Wetterkarte
  • News
  • Widgets
  • user-avatar
    Anmelden

    Stündliche Wetter Kalsko

    Heute, 21 Februar, Donnerstag

    Zeit Temperatur Niederschläge Wind Luftdruck Luftfeuchtigkeit
    00:00 +6°C° 0 mm 2 m/S 762 mmHg 87%
    01:00 +5°C° 0 mm 2 m/S 762 mmHg 91%
    02:00 +5°C° 0 mm 2 m/S 762 mmHg 89%
    03:00 +4°C° 0 mm 3 m/S 762 mmHg 88%
    04:00 +4°C° 0 mm 3 m/S 761 mmHg 87%
    05:00 +4°C° 0 mm 3 m/S 761 mmHg 86%
    06:00 +4°C° 0 mm 3 m/S 761 mmHg 86%
    07:00 +4°C° 0 mm 4 m/S 761 mmHg 86%
    08:00 +5°C° 0.1 mm 4 m/S 761 mmHg 84%
    09:00 +5°C° 0.1 mm 4 m/S 761 mmHg 82%
    10:00 +6°C° 0.1 mm 4 m/S 761 mmHg 80%
    11:00 +6°C° 0.2 mm 5 m/S 761 mmHg 80%
    12:00 +6°C° 0.2 mm 5 m/S 761 mmHg 80%
    13:00 +7°C° 0.2 mm 6 m/S 760 mmHg 79%
    14:00 +7°C° 0.2 mm 5 m/S 760 mmHg 80%
    15:00 +7°C° 0.2 mm 5 m/S 760 mmHg 81%
    16:00 +7°C° 0.2 mm 5 m/S 760 mmHg 81%
    17:00 +7°C° 0.2 mm 5 m/S 760 mmHg 84%
    18:00 +7°C° 0.2 mm 5 m/S 760 mmHg 86%
    19:00 +7°C° 0.2 mm 5 m/S 760 mmHg 88%
    20:00 +7°C° 0.3 mm 5 m/S 760 mmHg 89%
    21:00 +7°C° 0.3 mm 4 m/S 760 mmHg 90%
    22:00 +7°C° 0.3 mm 4 m/S 760 mmHg 91%
    23:00 +7°C° 0.2 mm 4 m/S 761 mmHg 90%

    Morgen, 22 Februar, Freitag

    Zeit Temperatur Niederschläge Wind Luftdruck Luftfeuchtigkeit
    00:00 +7°C° 0.2 mm 5 m/S 761 mmHg 90%
    01:00 +7°C° 0.2 mm 5 m/S 762 mmHg 89%
    02:00 +6°C° 0.2 mm 5 m/S 762 mmHg 87%
    03:00 +3°C° 0.2 mm 5 m/S 763 mmHg 84%
    04:00 +2°C° 0.2 mm 6 m/S 764 mmHg 81%
    05:00 +1°C° 0 mm 6 m/S 765 mmHg 78%
    06:00 0°C° 0 mm 5 m/S 767 mmHg 76%
    07:00 -1°C° 0 mm 5 m/S 768 mmHg 73%
    08:00 -1°C° 0 mm 5 m/S 769 mmHg 67%
    09:00 -1°C° 0 mm 4 m/S 770 mmHg 60%
    10:00 -1°C° 0 mm 4 m/S 771 mmHg 53%
    11:00 0°C° 0 mm 4 m/S 772 mmHg 49%
    12:00 0°C° 0 mm 4 m/S 773 mmHg 46%
    13:00 +1°C° 0 mm 4 m/S 773 mmHg 42%
    14:00 +2°C° 0 mm 3 m/S 774 mmHg 42%
    15:00 +2°C° 0 mm 3 m/S 774 mmHg 42%
    16:00 +2°C° 0 mm 3 m/S 774 mmHg 41%
    17:00 +2°C° 0 mm 2 m/S 775 mmHg 45%
    18:00 +1°C° 0 mm 2 m/S 775 mmHg 49%
    19:00 -1°C° 0 mm 2 m/S 776 mmHg 53%
    20:00 -2°C° 0 mm 2 m/S 776 mmHg 53%
    21:00 -2°C° 0 mm 2 m/S 776 mmHg 53%
    22:00 -2°C° 0 mm 2 m/S 777 mmHg 53%
    23:00 -2°C° 0 mm 2 m/S 777 mmHg 52%

    übermorgen, 23 Februar, Samstag

    Zeit Temperatur Niederschläge Wind Luftdruck Luftfeuchtigkeit
    00:00 -3°C° 0 mm 2 m/S 777 mmHg 52%
    01:00 -3°C° 0 mm 2 m/S 777 mmHg 51%
    02:00 -3°C° 0 mm 2 m/S 777 mmHg 51%
    03:00 -3°C° 0 mm 2 m/S 777 mmHg 50%
    04:00 -1°C° 0 mm 1 m/S 776 mmHg 50%
    05:00 -1°C° 0 mm 1 m/S 777 mmHg 50%
    06:00 -1°C° 0 mm 1 m/S 777 mmHg 51%
    07:00 -1°C° 0 mm 1 m/S 777 mmHg 51%
    08:00 0°C° 0 mm 1 m/S 777 mmHg 46%
    09:00 +1°C° 0 mm 1 m/S 777 mmHg 41%
    10:00 +1°C° 0 mm 2 m/S 778 mmHg 36%
    11:00 +1°C° 0 mm 2 m/S 777 mmHg 32%
    12:00 +2°C° 0 mm 2 m/S 777 mmHg 29%
    13:00 +3°C° 0 mm 2 m/S 777 mmHg 26%
    14:00 +4°C° 0 mm 1 m/S 776 mmHg 27%
    15:00 +4°C° 0 mm 1 m/S 776 mmHg 27%
    16:00 +4°C° 0 mm 1 m/S 776 mmHg 28%
    17:00 +3°C° 0 mm 1 m/S 776 mmHg 31%
    18:00 +2°C° 0 mm 1 m/S 775 mmHg 33%
    19:00 +1°C° 0 mm 1 m/S 775 mmHg 36%
    20:00 +1°C° 0 mm 1 m/S 775 mmHg 36%
    21:00 +1°C° 0 mm 1 m/S 775 mmHg 37%
    22:00 +1°C° 0 mm 1 m/S 775 mmHg 38%
    23:00 +1°C° 0 mm 1 m/S 775 mmHg 38%

    24 Februar, Sonntag

    Zeit Temperatur Niederschläge Wind Luftdruck Luftfeuchtigkeit
    00:00 +1°C° 0 mm 1 m/S 775 mmHg 38%
    01:00 +1°C° 0 mm 1 m/S 775 mmHg 38%
    02:00 +1°C° 0 mm 1 m/S 774 mmHg 38%
    03:00 +1°C° 0 mm 1 m/S 774 mmHg 39%
    04:00 +1°C° 0 mm 1 m/S 774 mmHg 39%
    05:00 +1°C° 0 mm 1 m/S 774 mmHg 39%
    06:00 +1°C° 0 mm 1 m/S 773 mmHg 39%
    07:00 -1°C° 0 mm 2 m/S 773 mmHg 39%
    08:00 +1°C° 0 mm 2 m/S 773 mmHg 37%
    09:00 +2°C° 0 mm 2 m/S 773 mmHg 35%
    10:00 +3°C° 0 mm 3 m/S 773 mmHg 34%
    11:00 +4°C° 0 mm 3 m/S 773 mmHg 35%
    12:00 +5°C° 0 mm 3 m/S 773 mmHg 37%
    13:00 +7°C° 0 mm 3 m/S 772 mmHg 38%
    14:00 +7°C° 0 mm 3 m/S 772 mmHg 43%
    15:00 +7°C° 0 mm 2 m/S 772 mmHg 48%
    16:00 +7°C° 0 mm 2 m/S 772 mmHg 52%
    17:00 +6°C° 0 mm 2 m/S 772 mmHg 58%
    18:00 +5°C° 0 mm 2 m/S 772 mmHg 64%
    19:00 +4°C° 0 mm 2 m/S 772 mmHg 70%
    20:00 +3°C° 0 mm 2 m/S 772 mmHg 72%
    21:00 +3°C° 0 mm 2 m/S 772 mmHg 74%
    22:00 +2°C° 0 mm 2 m/S 772 mmHg 77%
    23:00 +2°C° 0 mm 2 m/S 772 mmHg 78%

    25 Februar, Montag

    Zeit Temperatur Niederschläge Wind Luftdruck Luftfeuchtigkeit
    00:00 +2°C° 0 mm 2 m/S 772 mmHg 79%
    01:00 +2°C° 0 mm 2 m/S 773 mmHg 80%
    02:00 +1°C° 0 mm 2 m/S 772 mmHg 82%
    03:00 +1°C° 0 mm 2 m/S 772 mmHg 84%
    04:00 +1°C° 0 mm 2 m/S 772 mmHg 86%
    05:00 +1°C° 0 mm 2 m/S 772 mmHg 88%
    06:00 +1°C° 0 mm 2 m/S 772 mmHg 91%
    07:00 +2°C° 0 mm 1 m/S 772 mmHg 93%
    08:00 +2°C° 0 mm 2 m/S 773 mmHg 89%
    09:00 +4°C° 0 mm 2 m/S 773 mmHg 84%
    10:00 +5°C° 0 mm 2 m/S 774 mmHg 79%
    11:00 +7°C° 0 mm 2 m/S 774 mmHg 74%
    12:00 +8°C° 0 mm 2 m/S 773 mmHg 68%
    13:00 +11°C° 0 mm 1 m/S 773 mmHg 62%
    14:00 +11°C° 0 mm 1 m/S 773 mmHg 62%
    15:00 +10°C° 0 mm 0 m/S 773 mmHg 62%
    16:00 +10°C° 0 mm 0 m/S 772 mmHg 62%
    17:00 +8°C° 0 mm 0 m/S 772 mmHg 67%
    18:00 +7°C° 0 mm 0 m/S 772 mmHg 72%
    19:00 +6°C° 0 mm 0 m/S 772 mmHg 78%
    20:00 +6°C° 0 mm 0 m/S 772 mmHg 80%
    21:00 +5°C° 0 mm 0 m/S 772 mmHg 82%
    22:00 +5°C° 0 mm 0 m/S 772 mmHg 84%
    23:00 +5°C° 0 mm 1 m/S 772 mmHg 86%

    26 Februar, Dienstag

    Zeit Temperatur Niederschläge Wind Luftdruck Luftfeuchtigkeit
    00:00 +5°C° 0 mm 1 m/S 772 mmHg 87%
    01:00 +5°C° 0 mm 1 m/S 771 mmHg 89%
    02:00 +4°C° 0 mm 2 m/S 771 mmHg 90%
    03:00 +3°C° 0 mm 2 m/S 770 mmHg 92%
    04:00 +3°C° 0 mm 2 m/S 770 mmHg 93%
    05:00 +3°C° 0 mm 2 m/S 770 mmHg 93%
    06:00 +3°C° 0 mm 2 m/S 769 mmHg 94%
    07:00 +3°C° 0 mm 2 m/S 769 mmHg 94%
    08:00 +3°C° 0 mm 3 m/S 769 mmHg 85%
    09:00 +5°C° 0 mm 3 m/S 768 mmHg 76%
    10:00 +6°C° 0 mm 4 m/S 768 mmHg 68%
    11:00 +8°C° 0 mm 4 m/S 768 mmHg 63%
    12:00 +10°C° 0 mm 4 m/S 767 mmHg 58%
    13:00 +10°C° 0 mm 5 m/S 767 mmHg 53%
    14:00 +10°C° 0 mm 5 m/S 767 mmHg 54%
    15:00 +12°C° 0 mm 5 m/S 766 mmHg 55%
    16:00 +12°C° 0 mm 5 m/S 766 mmHg 56%
    17:00 +10°C° 0 mm 4 m/S 766 mmHg 62%
    18:00 +9°C° 0 mm 3 m/S 766 mmHg 69%
    19:00 +8°C° 0 mm 3 m/S 766 mmHg 75%
    20:00 +7°C° 0 mm 3 m/S 766 mmHg 80%
    21:00 +6°C° 0 mm 2 m/S 767 mmHg 85%
    22:00 +5°C° 0 mm 2 m/S 767 mmHg 89%
    23:00 +5°C° 0 mm 2 m/S 767 mmHg 91%
    Mehr zeigen